Location: Góry Miechowskie
(50.3599°N, 20.1803°E)
Time: 11:46:07
(UTC+00:00)

Vanguard 1 Rocket - Pass Details

Date: 22 September 2024
Orbit: 650 x 4218 km, 34.3° (Epoch: 12 October)

Event Time Altitude Azimuth Distance (km) Brightness Sun altitude
Rises 04:34:24 0° 264° (W) 5,961 10.9 0.5°
Reaches altitude 10° 04:37:56 10° 258° (WSW) 5,356 10.7 1.1°
Maximum altitude 04:54:04 44° 194° (SSW) 4,539 10.9 3.6°
Drops below altitude 10° 05:17:06 10° 133° (SE) 7,404 13.1 7.3°
Sets 05:23:14 0° 128° (SE) 8,324 13.5 8.2°
